map of TXL home
TXL - Airport
Location
City:  Berlin, Berlin, Germany
Near (Alt.):Tegel
Name:Berlin Tegel Airport
Old (Alt.):Berlin-Tegel Otto Lilienthal
ICAO:EDDT
IATA:TXL

Details
Type:Airport (Flugplatz, Airfield)
Latitude:5233'35"N (52.559683)
Longitude:1317'16"E (13.287717)
Elevation:122 ft (37 m)
Variation:3.71E (WMM2015 magnetic declination)
0.13 annual change
Runways:2
Longest:9918 × 151 ft (3023 × 46 m), paved

Time
Time Zone:UTC+1 (DST+2)
Local Time:

Weather
METAR:EDDT 180420Z 20003KT 170V270 9999 MIFG BKN029 19/17 Q1015 NOSIG
TAF:EDDT 172300Z 1800/1824 25007KT CAVOK PROB30
TEMPO 1816/1820 24015G30KT TSRA BKN030CB

Related Locations
Nearby:
Farthest:CHT: 11681 mi / 18798 km
Waitangi [Tuuta], CIT, NZ

Find:

   beyond  
but within

Other Information
Maps:
NOTAMs:
Links:
Sources:

  
flag of Germany
flag of Berlin
  

Sectional Chart

Flight Planning
at skyvector.com

Satellite Image

Google Maps Satellite view

 

Copyright © 2004-2017 Karl L. Swartz. All rights reserved.
The Great Circle Mapper name and logo are trademarks of the Great Circle Mapper.
All other trademarks mentioned herein belong to their respective owners.
Please see credits for attibutions and further copyright information.

  Follow gcmap on Facebook Follow gcmap on Twitter Follow gcmap on Google+ GCmap on LinkedIn

hCard Microformat

Geo Microformat